Location: Peterborough
(44.3091°N, 78.3197°W)
Time: 00:30:28
(UTC-04:00)

SR - Pass Details

Date: 24 March 2023
Orbit: 581 x 867 km, 66.7° (Epoch: 02 June)

Event Time Altitude Azimuth Distance (km) Brightness Sun altitude
Rises 04:51:52 0° 243° (WSW) 2,980 - -24.4°
Reaches altitude 10° 04:54:33 10° 256° (WSW) 2,026 - -24.0°
Maximum altitude 04:58:19 25° 313° (NW) 1,239 - -23.4°
Exits shadow 04:58:58 24° 327° (NNW) 1,262 ? -23.3°
Drops below altitude 10° 05:01:57 10° 10° (N) 1,938 ? -22.8°
Sets 05:04:29 0° 24° (NNE) 2,823 ? -22.4°
